Weather History for Grand Rapids, MN

Change the Weather History Date:

Tuesday, October 9, 2012

  Actual Average Record
Temperature  
Mean Temperature 38 °F -  
Max Temperature 42 °F 56 °F 82 °F (1938)
Min Temperature 32 °F 35 °F 18 °F (1945)
Degree Days  
Heating Degree Days 28    
Moisture  
Dew Point 32 °F    
Average Humidity 78    
Maximum Humidity 87    
Minimum Humidity 65    
Precipitation  
Precipitation 0.00 in - - ()
Sea Level Pressure  
Sea Level Pressure 29.72 in    
Wind  
Wind Speed 9 mph (West)    
Max Wind Speed 20 mph    
Max Gust Speed 30 mph    
Visibility 10 miles    
Events      
Averages and records for this station are not official NWS values.
T = Trace of Precipitation, MM = Missing Value Source: NWS Daily Summary

Daily Weather History Graph

Daily Weather History Graph

Search for Another Location

Airport:

Trip Planner

Search our weather history database for the weather conditions in past years. The results will help you decide how hot, cold, wet, or windy it might be!

Date:

Astronomy

Oct. 09, 2012 Rise Set
Actual Time 7:24 AM CDT 6:36 PM CDT
Civil Twilight 6:54 AM CDT 7:07 PM CDT
Nautical Twilight 6:18 AM CDT 7:42 PM CDT
Astronomical Twilight 5:42 AM CDT 8:18 PM CDT
Moon 12:38 AM CDT (10/9) 3:25 PM CDT (10/9)
Length of Visible Light 12h 13m
Length of Day
11h 12m
Last Quarter, 36% of the Moon is Illuminated
Oct 9
Last Quarter
Oct 15
New
Oct 21
First Quarter
Oct 29
Full
Nov 6
Last Quarter

Hourly Weather History & Observations

Time (CDT) Temp. Windchill Dew Point Humidity Pressure Visibility Wind Dir Wind Speed Gust Speed Precip Events Conditions
12:15 AM 42.8 °F 38.6 °F 37.4 °F 81% 29.62 in 10.0 mi WSW 6.9 mph - N/A   Mostly Cloudy
12:35 AM 42.8 °F 37.5 °F 37.4 °F 81% 29.62 in 10.0 mi WSW 9.2 mph - N/A   Mostly Cloudy
12:55 AM 42.8 °F 38.0 °F 37.4 °F 81% 29.62 in 10.0 mi West 8.1 mph - N/A   Scattered Clouds
1:15 AM 42.8 °F 39.3 °F 37.4 °F 81% 29.62 in 10.0 mi West 5.8 mph - N/A   Clear
1:35 AM 42.8 °F 39.3 °F 37.4 °F 81% 29.62 in 10.0 mi WSW 5.8 mph - N/A   Clear
1:55 AM 42.8 °F 39.3 °F 37.4 °F 81% 29.63 in 10.0 mi WSW 5.8 mph - N/A   Clear
2:15 AM 41.0 °F 36.4 °F 35.6 °F 81% 29.63 in 10.0 mi WSW 6.9 mph - N/A   Clear
2:35 AM 41.0 °F 37.1 °F 35.6 °F 81% 29.63 in 10.0 mi SSW 5.8 mph - N/A   Clear
2:55 AM 39.2 °F 35.0 °F 35.6 °F 87% 29.63 in 10.0 mi SSW 5.8 mph - N/A   Clear
3:15 AM 39.2 °F 35.0 °F 35.6 °F 87% 29.63 in 10.0 mi SW 5.8 mph - N/A   Partly Cloudy
3:35 AM 39.2 °F 34.2 °F 35.6 °F 87% 29.63 in 10.0 mi SW 6.9 mph - N/A   Partly Cloudy
3:55 AM 39.2 °F 33.6 °F 35.6 °F 87% 29.62 in 10.0 mi SW 8.1 mph - N/A   Scattered Clouds
4:15 AM 41.0 °F 35.8 °F 35.6 °F 81% 29.63 in 10.0 mi WSW 8.1 mph - N/A   Partly Cloudy
4:35 AM 41.0 °F 37.1 °F 35.6 °F 81% 29.62 in 10.0 mi WSW 5.8 mph - N/A   Mostly Cloudy
4:55 AM 41.0 °F 36.4 °F 35.6 °F 81% 29.63 in 10.0 mi WSW 6.9 mph - N/A   Overcast
5:15 AM 39.2 °F 34.2 °F 33.8 °F 81% 29.63 in 10.0 mi WSW 6.9 mph - N/A   Scattered Clouds
5:35 AM 39.2 °F 34.2 °F 33.8 °F 81% 29.63 in 10.0 mi WSW 6.9 mph - N/A   Clear
5:55 AM 39.2 °F 35.0 °F 33.8 °F 81% 29.63 in 10.0 mi WSW 5.8 mph - N/A   Scattered Clouds
6:15 AM 39.2 °F 34.2 °F 33.8 °F 81% 29.63 in 10.0 mi WSW 6.9 mph - N/A   Partly Cloudy
6:35 AM 39.2 °F 34.2 °F 33.8 °F 81% 29.63 in 10.0 mi SW 6.9 mph - N/A   Clear
6:55 AM 37.4 °F 33.8 °F 32.0 °F 81% 29.64 in 10.0 mi SW 4.6 mph - N/A   Clear
7:15 AM 37.4 °F 32.8 °F 32.0 °F 81% 29.64 in 10.0 mi SW 5.8 mph - N/A   Clear
7:35 AM 37.4 °F 32.1 °F 30.2 °F 75% 29.65 in 10.0 mi SW 6.9 mph - N/A   Clear
7:55 AM 37.4 °F 31.4 °F 30.2 °F 75% 29.65 in 10.0 mi WSW 8.1 mph - N/A   Mostly Cloudy
8:15 AM 37.4 °F 31.4 °F 30.2 °F 75% 29.65 in 10.0 mi WSW 8.1 mph 16.1 mph N/A   Overcast
8:35 AM 37.4 °F 29.8 °F 30.2 °F 75% 29.65 in 10.0 mi WSW 11.5 mph - N/A   Mostly Cloudy
9:15 AM 39.2 °F 32.0 °F 30.2 °F 70% 29.66 in 10.0 mi WSW 11.5 mph 19.6 mph N/A   Partly Cloudy
9:35 AM 39.2 °F 32.0 °F 30.2 °F 70% 29.66 in 10.0 mi West 11.5 mph 17.3 mph N/A   Mostly Cloudy
10:35 AM 39.2 °F 33.6 °F 30.2 °F 70% 29.67 in 10.0 mi West 8.1 mph 17.3 mph N/A   Overcast
10:55 AM 39.2 °F 31.6 °F 30.2 °F 70% 29.67 in 10.0 mi West 12.7 mph 17.3 mph N/A   Overcast
11:15 AM 39.2 °F 32.5 °F 30.2 °F 70% 29.67 in 10.0 mi West 10.4 mph 19.6 mph N/A   Overcast
11:35 AM 39.2 °F 32.0 °F 30.2 °F 70% 29.68 in 10.0 mi West 11.5 mph 19.6 mph N/A   Overcast
11:55 AM 39.2 °F 31.6 °F 30.2 °F 70% 29.69 in 10.0 mi WNW 12.7 mph 17.3 mph N/A   Overcast
12:15 PM 39.2 °F 31.6 °F 30.2 °F 70% 29.69 in 10.0 mi West 12.7 mph 18.4 mph N/A   Overcast
12:35 PM 39.2 °F 31.2 °F 30.2 °F 70% 29.69 in 10.0 mi West 13.8 mph 19.6 mph N/A   Overcast
12:55 PM 39.2 °F 32.0 °F 33.8 °F 81% 29.69 in 5.0 mi West 11.5 mph 18.4 mph N/A   Overcast
1:15 PM 39.2 °F 33.0 °F 33.8 °F 81% 29.69 in 9.0 mi West 9.2 mph 17.3 mph N/A   Overcast
1:35 PM 39.2 °F 31.2 °F 33.8 °F 81% 29.70 in 10.0 mi WNW 13.8 mph 18.4 mph N/A   Overcast
1:55 PM 37.4 °F 29.3 °F 33.8 °F 87% 29.70 in 10.0 mi WNW 12.7 mph 19.6 mph N/A   Overcast
2:15 PM 39.2 °F 30.5 °F 33.8 °F 81% 29.71 in 10.0 mi WNW 16.1 mph 20.7 mph N/A   Mostly Cloudy
2:35 PM 39.2 °F 30.5 °F 33.8 °F 81% 29.71 in 10.0 mi WNW 16.1 mph 26.5 mph N/A   Mostly Cloudy
2:55 PM 39.2 °F 31.6 °F 33.8 °F 81% 29.72 in 10.0 mi NW 12.7 mph - N/A   Overcast
3:15 PM 37.4 °F 28.2 °F 32.0 °F 81% 29.73 in 9.0 mi NW 16.1 mph 27.6 mph N/A   Overcast
3:35 PM 39.2 °F 29.6 °F 32.0 °F 75% 29.74 in 10.0 mi WNW 19.6 mph 29.9 mph N/A   Overcast
3:55 PM 37.4 °F 27.8 °F 33.8 °F 87% 29.75 in 10.0 mi NW 17.3 mph 23.0 mph N/A   Overcast
4:15 PM 37.4 °F 27.8 °F 30.2 °F 75% 29.76 in 10.0 mi WNW 17.3 mph 23.0 mph N/A   Mostly Cloudy
4:35 PM 39.2 °F 31.2 °F 28.4 °F 65% 29.76 in 10.0 mi NW 13.8 mph 23.0 mph N/A   Mostly Cloudy
4:55 PM 39.2 °F 29.8 °F 30.2 °F 70% 29.77 in 10.0 mi NW 18.4 mph 23.0 mph N/A   Mostly Cloudy
5:15 PM 37.4 °F 28.9 °F 30.2 °F 75% 29.78 in 10.0 mi WNW 13.8 mph 19.6 mph N/A   Scattered Clouds
5:35 PM 39.2 °F 31.6 °F 28.4 °F 65% 29.79 in 10.0 mi WNW 12.7 mph 21.9 mph N/A   Mostly Cloudy
5:55 PM 39.2 °F 31.2 °F 28.4 °F 65% 29.79 in 10.0 mi WNW 13.8 mph 20.7 mph N/A   Overcast
6:15 PM 37.4 °F 28.9 °F 30.2 °F 75% 29.80 in 10.0 mi WNW 13.8 mph 21.9 mph N/A   Mostly Cloudy
6:35 PM 37.4 °F 28.2 °F 28.4 °F 70% 29.82 in 10.0 mi WNW 16.1 mph 21.9 mph N/A   Overcast
6:55 PM 37.4 °F 29.3 °F 28.4 °F 70% 29.83 in 10.0 mi NW 12.7 mph 18.4 mph N/A   Overcast
7:15 PM 35.6 °F 25.9 °F 28.4 °F 75% 29.84 in 10.0 mi WNW 16.1 mph 21.9 mph N/A   Overcast
7:35 PM 35.6 °F 26.2 °F 28.4 °F 75% 29.85 in 4.0 mi NNW 15.0 mph 25.3 mph N/A   Mostly Cloudy
7:55 PM 33.8 °F 24.8 °F 28.4 °F 81% 29.86 in 10.0 mi NW 12.7 mph - N/A   Mostly Cloudy
8:15 PM 35.6 °F 27.1 °F 28.4 °F 75% 29.86 in 10.0 mi NW 12.7 mph - N/A   Mostly Cloudy
8:35 PM 35.6 °F 27.5 °F 28.4 °F 75% 29.87 in 10.0 mi NW 11.5 mph - N/A   Mostly Cloudy
8:55 PM 35.6 °F 27.1 °F 28.4 °F 75% 29.88 in 10.0 mi NW 12.7 mph 21.9 mph N/A   Overcast
9:15 PM 33.8 °F 24.8 °F 28.4 °F 81% 29.88 in 10.0 mi NW 12.7 mph - N/A   Overcast
9:35 PM 33.8 °F 24.8 °F 28.4 °F 81% 29.89 in 10.0 mi WNW 12.7 mph - N/A   Overcast
9:55 PM 33.8 °F 25.8 °F 28.4 °F 81% 29.89 in 10.0 mi WNW 10.4 mph - N/A   Overcast
10:15 PM 33.8 °F 25.3 °F 28.4 °F 81% 29.90 in 10.0 mi WNW 11.5 mph - N/A   Overcast
10:35 PM 33.8 °F 26.4 °F 28.4 °F 81% 29.90 in 10.0 mi WNW 9.2 mph - N/A   Overcast
10:55 PM 33.8 °F 25.8 °F 28.4 °F 81% 29.91 in 10.0 mi WNW 10.4 mph - N/A   Overcast
11:15 PM 33.8 °F 27.7 °F 28.4 °F 81% 29.91 in 10.0 mi WNW 6.9 mph - N/A   Mostly Cloudy
11:35 PM 33.8 °F 26.4 °F 28.4 °F 81% 29.91 in 10.0 mi WNW 9.2 mph - N/A   Mostly Cloudy
11:55 PM 32.0 °F 23.0 °F 28.4 °F 87% 29.91 in 10.0 mi WNW 11.5 mph - N/A   Mostly Cloudy